DELTA 1 DEB, 42087

Orbit data source: Space-Track

DELTA 1 DEB, 42087 is space debris in SSO originally from a launch on Sun, 15 Dec 1968 UTC launched from the Air Force Western Test Range (AFWTR). Debris objects in space refer to the collection of defunct objects orbiting the Earth. Examples of debris include non-operational satellites, rocket bodies, and fragments generated from explosions, collisions, or faulty payload assembly.

Loading next visibility...
DELTA 1 DEB details
Identifier
42087, 1968-114P
Orbit
SSO
Last TLE update16 hours ago
Origin
Flag of USGSFC (US)
ManufacturerAerojet
MissionSpacecraft
Bus & MotorUnknown
MassUnknown
Launch date (UTC)
1968-12-15 (56 years ago)
Launch vehicleUnknown
Launch site
Air Force Western Test Range (AFWTR)
Object type
Payload
Rocket body
Debris
Shape & HBRUnknown
Radar Cross SectionSmall (<0.1 m²)

Expand to show TLE details & history

TLE from 16 hours ago
0 DELTA 1 DEB
1 42087U 68114P   24361.16944204  .00000554  00000-0  44454-2 0  9994
2 42087 101.4047 337.4345 0198495 276.7858  81.0656 12.35035072887375
Epoch: 2024-12-26T04:03Z
Definitive object data (Epoch: 2024-12-26T04:03:59.792Z)
Latitude-0.00004°
Longitude-178.71732°
Altitude1,508.965 km
Speed7.12 km/s
True Right ascension22h 29m 44s
True Declination0° 00' 00"
Sunlit
Object was in daylight at TLE epoch
Visualization TLE readout
Latitude32.43147°
Longitude9.24446°
Altitude1,627.617 km
Speed7.017 km/s
Apparent Right ascension09h 41m 34s
Apparent Declination1° 05' 22"
Sunlit
Object is in daylight
Visualization observer readout
Local Sidereal Time19:48:51
Azimuth320.859° NNW
Elevation-41.588°
Doppler factor1
Orbital elements
Apogee altitude1,682.144 km
Perigee altitude1,368.387 km
Semi-major axis7,903.403 km
Eccentricity0.0198495
Inclination101.4047°
RAAN337.4345°
Arg. of periapsis276.7858°
True anomaly83.3207°
Mean anomaly81.0656°
Eccentric anomaly82.19235°
Mean motion3.08903 °/min
BSTAR0.0044454
Orbital period116.54 mins
Loading maneuver chart data...
Loading historical data...
Loading historical data...
Loading historical data...
Loading historical data...
Loading historical data...
Loading historical data...
Loading historical data...

DELTA 1 DEB Visibility forecast

Observer location: undefined°, undefined

Span
Click to sort rows by Start time (UTC) header in descending order
Start Az.
Max El. time (UTC)
Max El. Az.
Max El.
End time (UTC)
End Az.
17 mins2024-12-26 21:40:01.942Z137.643° SSE2024-12-26 21:48:01.942Z67.386° ENE39.375°2024-12-26 21:57:01.942Z351.104° N
15 mins2024-12-26 23:36:01.942Z203.916° SW2024-12-26 23:43:01.942Z266.227° W30.59°2024-12-26 23:51:01.942Z327.272° NNW
11 mins2024-12-27 09:56:01.942Z52.527° ENE2024-12-27 10:01:01.942Z90.455° ESE20.633°2024-12-27 10:07:01.942Z135.25° SSE
16 mins2024-12-27 11:49:01.942Z14.657° NNE2024-12-27 11:56:01.942Z328.865° NNW44.588°2024-12-27 12:05:01.942Z203.953° SW
10 mins2024-12-27 13:45:01.942Z343.332° N2024-12-27 13:49:01.942Z313.607° NW19.997°2024-12-27 13:55:01.942Z269.678° W
|